460  
ASUS44 KSJT 220015  
RWRSJT  
WEST CENTRAL TEXAS REGIONAL WEATHER ROUNDUP  
NATIONAL WEATHER SERVICE SAN ANGELO TX  
700 PM CDT THU OCT 21 2021  
 
NOTE: "FAIR" INDICATES FEW OR NO CLOUDS BELOW 12,000 FEET WITH NO  
SIGNIFICANT WEATHER AND/OR S TO VISIBILITY
.  
 
TXZ049-054-064>066-071>073-076>078-098-099-113-114-127-128-139-140-  
154-155-168>170-220100-   
..LOCATIONS ACROSS WEST CENTRAL TEXAS
 
 
 
CITY SKY/WX TMP DP RH WIND PRES REMARKS
 
SAN ANGELO PTCLDY 77 65 66 NE6 30.11F  
ABILENE CLEAR 77 63 61 SE8 30.13R  
DYESS AFB MOCLDY 79 59 50 SE10 30.11R  
JUNCTION PTCLDY 79 63 57 E7 30.12S  
SWEETWATER CLEAR 77 61 56 SE9 30.16S  
BROWNWOOD MOCLDY 77 64 65 NE3 30.12S  
COLEMAN NOT AVBL  
SAN SABA MOCLDY 78 66 66 SE3 30.12F  
SONORA PTCLDY 79 63 57 CALM 30.16S  
OZONA CLOUDY 77 63 61 S12 30.15S  
BRADY N/A 75 64 69 E5 N/A  

 
 
TXZ001-004-007-008-010-012-014-016-OKZ002-220100-  
TEXAS PANHANDLE/OKLAHOMA PANHANDLE  
 
CITY SKY/WX TMP DP RH WIND PRES REMARKS
 
AMARILLO CLEAR 69 45 41 SE15 30.15S  
BORGER PTCLDY 72 43 35 SE15G21 30.16R  
CANADIAN PTCLDY 65 42 42 SE7 30.18S  
DALHART MOCLDY 67 31 26 E7 30.19S  
DUMAS MOCLDY 71 37 28 CALM 30.18R  
GUYMON NOT AVBL  
HEREFORD CLEAR 73 38 28 S7 30.17R  
PAMPA PTCLDY 66 45 45 SE8 30.19S  
PERRYTON MOCLDY 66 42 41 SE6 30.16S  

 
 
TXZ035-026-045-048-220100-  
SOUTHERN PANHANDLE/SOUTH PLAINS/ROLLING PLAINS  
 
CITY SKY/WX TMP DP RH WIND PRES REMARKS
 
LUBBOCK PTCLDY 76 52 43 S9 30.15S  
SNYDER MOCLDY 79 60 51 S8 30.13S  
CHILDRESS CLEAR 72 43 35 E7 30.15S  
SEMINOLE CLEAR 75 59 57 S8 30.20S  

 
 
TXZ060>062-220100-  
PERMIAN BASIN  
 
CITY SKY/WX TMP DP RH WIND PRES REMARKS
 
MIDLAND CLEAR 75 61 61 SE10 30.14S  
ODESSA CLEAR 74 59 59 S9 30.15S  
WINK CLEAR 79 60 52 SE10 30.11S  

 
 
TXZ075-082-271-274-277-419-220100-  
FAR WEST/SOUTHWEST MOUNTAINS/TRANS PECOS  
 
CITY SKY/WX TMP DP RH WIND PRES REMARKS
 
ALPINE CLOUDY 66 56 69 S3 30.26S  
DRYDEN N/A 78 65 63 E12 30.12S  
EL PASO PTCLDY 83 30 14 E3 30.13S  
FORT STOCKTON NOT AVBL  
GUADALUPE PASS CLEAR 70 47 43 E17 30.25S  
MARFA CLOUDY 69 53 56 N9 30.24R  
PECOS CLEAR 81 60 48 E10 30.10S  

 
 
TXZ118-119-220100-  
DALLAS/FORT WORTH METROPLEX  
 
CITY SKY/WX TMP DP RH WIND PRES REMARKS
 
DFW AIRPORT PTCLDY 74 45 35 NE6 30.09F  
FTW MEACHAM CLEAR 76 51 41 NE6 30.10S  
DAL-EXECUTIVE CLEAR 77 52 41 E7 30.10S  
GRAND PRAIRIE CLEAR 77 54 44 NE6 30.11F  
ADDISON CLEAR 79 41 25 E7 30.11F  
MESQUITE CLEAR 73 54 49 CALM 30.11F  
LANCASTER CLEAR 77 56 47 NE3 30.11S  

 
 
TXZ092-093-103-131-134-220100-  
NORTH CENTRAL TEXAS  
 
CITY SKY/WX TMP DP RH WIND PRES REMARKS
 
SHRMAN/DENISON CLEAR 66 48 52 N5 30.16S  
GAINESVILLE CLEAR 69 46 43 E5 30.16S  
BRIDGEPORT CLEAR 72 52 48 CALM 30.14R  
DENTON CLEAR 71 48 43 N8 30.12S  
WAXAHACHIE CLEAR 76 61 60 CALM 30.11F  
GRANBURY CLEAR 78 60 53 NE6 30.11S  

 
 
TXZ085-086-115-141-220100-  
WESTERN NORTH TEXAS  
 
CITY SKY/WX TMP DP RH WIND PRES REMARKS
 
WICHITA FALLS PTCLDY 70 44 39 E7 30.13S  
VERNON NOT AVBL  
BRECKENRIDGE PTCLDY 78 60 53 E6 30.12R  
COMANCHE CLEAR 75 62 64 E6 30.12F  

 
 
TXZ145-158-159-173-191-192-194-205-207-220-223-220100-  
CENTRAL AND SOUTH CENTRAL TEXAS  
 
CITY SKY/WX TMP DP RH WIND PRES REMARKS
 
AUSTIN/BERGSTM PTCLDY 81 64 56 E5 30.07S  
WACO PTCLDY 75 65 70 E3 30.08R  
HILLSBORO NOT AVBL  
TEMPLE PTCLDY 78 66 66 NE5 30.09R  
KILLEEN-GRAY CLOUDY 77 63 61 SE5 30.08R  
FORT HOOD LGT RAIN 79 64 61 E3 30.10R VSB 1/8  
GEORGETOWN CLEAR 79 65 62 CALM 30.11R  
LAGO VISTA FAIR 77 61 56 E3 30.12S  
SAN MARCOS CLEAR 78 66 66 SE5 30.09S  
NEW BRAUNFELS CLEAR 79 65 62 SE5 30.07S  
RANDOLPH AFB PTCLDY 79 64 61 E6 30.07S  
SAN ANTONIO PTCLDY 78 65 63 E5 30.09S  
STINSON CLEAR 83 67 58 E3 30.06S  
PLEASANTON NOT AVBL  
LA GRANGE CLEAR 78 71 78 CALM 30.06R  
GIDDINGS CLEAR 79 68 68 CALM 30.08S  

 
 
TXZ095-096-136-137-148-152-220100-  
EAST TEXAS  
 
CITY SKY/WX TMP DP RH WIND PRES REMARKS
 
PARIS CLEAR 71 48 43 N5 30.14S  
CLARKSVILLE NOT AVBL  
TYLER PTCLDY 77 63 61 N6 30.09S  
LONGVIEW PTCLDY 78 61 55 N5 30.08S  
PALESTINE CLEAR 75 68 78 CALM 30.08S  
NACOGDOCHES CLEAR 81 63 54 N3 30.08S  

 
 
TXZ171-183-184-186-188-203-204-220100-  
TEXAS HILL COUNTRY AND EDWARDS PLATEAU  
 
CITY SKY/WX TMP DP RH WIND PRES REMARKS
 
LLANO PTCLDY 77 64 65 SE3 30.10R  
HORSESHOE BAY FAIR 78 64 61 CALM 30.12R  
KERRVILLE CLEAR 77 65 68 E6 30.12F  
FREDERICKSBRG PTCLDY 77 64 63 CALM 30.12S  
ROCKSPRINGS CLEAR 77 61 57 S6 30.19R  
HONDO CLEAR 81 65 58 E9 30.09R  
UVALDE PTCLDY 82 64 53 E6 30.09S  
DEL RIO PTCLDY 84 68 58 SE5 30.06S  

 
 
TXZ163-177-195>197-199-213-226-237-220100-  
SOUTHEAST TEXAS  
 
CITY SKY/WX TMP DP RH WIND PRES REMARKS
 
COLLEGE STN CLEAR 83 65 54 E3 30.07S  
CALDWELL CLEAR 78 68 72 CALM 30.08S  
CROCKETT N/A 79 64 61 CALM 30.07S  
BRENHAM PTCLDY 81 71 70 CALM 30.08R  
HUNTSVILLE CLEAR 79 69 71 CALM 30.08R  
CONROE PTCLDY 75 71 87 CALM 30.08R  
HOUSTON BUSH PTCLDY 76 68 76 CALM 30.07R  
HOUSTON HOBBY PTCLDY 84 63 49 NE5 30.06R  
PERLAND CLEAR 79 68 69 CALM 30.08S  
WHARTON PTCLDY 78 65 64 NE3 30.07S  

 
 
TXZ215-216-236-237-438-220100-  
THE UPPER TEXAS COAST  
 
CITY SKY/WX TMP DP RH WIND PRES REMARKS
 
ORANGE PTCLDY 79 73 82 CALM 30.08R  
PORT ARTHUR PTCLDY 75 73 93 S5 30.06R  
GALVESTON CLEAR 79 70 74 SE5 30.07S  
ANGLETON CLEAR 76 69 79 SE5 30.07R  
BAY CITY PTCLDY 76 72 86 S6 30.07S  

 
 
TXZ229-232-234-239-242-243-245-247-249-250-  
253-255-257-343-347-443-220100-  
TEXAS COASTAL BEND, RIO GRANDE PLAINS DEEP SOUTH TEXAS  
 
CITY SKY/WX TMP DP RH WIND PRES REMARKS
 
VICTORIA PTCLDY 78 67 68 CALM 30.07R  
BEEVILLE FAIR 77 74 90 NE5 30.06S  
ROCKPORT PTCLDY 78 72 81 SE7 30.05F  
PORT ARANSAS CLEAR 79 71 77 E7 30.08S  
PORT LAVACA MOCLDY 82 67 60 N3 30.06S  
CORPUS CHRISTI PTCLDY 79 68 69 E9 30.06S  
KINGSVILLE NAS PTCLDY 80 70 71 E10 30.05S  
COTULLA PTCLDY 85 65 51 E12 30.06R  
LAREDO PTCLDY 87 66 49 E6 30.02S  
BROWNSVILLE CLEAR 80 71 74 E8 30.04R  
PORT ISABEL CLEAR 79 71 76 E9 30.04S  
HEBBRONVILLE PTCLDY 85 66 53 E8 30.06R  
MCALLEN CLEAR 84 69 60 E14 30.02R  
WESLACO NOT AVBL  
 
CLICK HERE TO GO TO PREVIOUS BULLETINS.

The Nexlab TX Page Main Text Page